Stations météo

réclame
Mon MeteoGroup
Nancy/Ochey, France (7181): Température de l'air & dewpoint: 17.09.2017 21:00:00 - 23.09.2017 21:00:00 (CEST)Nancy/Ochey, France (7181): Température de l'air 5cm: 17.09.2017 21:00:00 - 23.09.2017 21:00:00 (CEST)Nancy/Ochey, France (7181): Température de l'air -20cm & Température de l'air -100cm: 17.09.2017 21:00:00 - 23.09.2017 21:00:00 (CEST)Nancy/Ochey, France (7181): Vitesse du vent & gusts: 17.09.2017 21:00:00 - 23.09.2017 21:00:00 (CEST)Nancy/Ochey, France (7181): Direction du vent: 17.09.2017 21:00:00 - 23.09.2017 21:00:00 (CEST)Nancy/Ochey, France (7181): reduced air pressure: 17.09.2017 21:00:00 - 23.09.2017 21:00:00 (CEST)Nancy/Ochey, France (7181): visibility: 17.09.2017 21:00:00 - 23.09.2017 21:00:00 (CEST)Nancy/Ochey, France (7181): Quantités de précipitations: 17.09.2017 21:00:00 - 23.09.2017 21:00:00 (CEST)
Date & Time tt [°C] td [°C] tt 5cm [°C] tt -20cm [°C] tt -100cm [°C] ff [km/h] ff [knt] fx [km/h] fx [knt] dd ppp [hPa] vv [km] rr [mm]
23.09.2017 21:00:00 15,3 11,5 11,6 14,7 15,3 5 3 7 4 NE 1021,1 35 0,0
23.09.2017 20:00:00 16,0 11,8 12,9 14,6 15,3 5 3 11 6 NNE 1020,8 35 0,0
23.09.2017 19:00:00 16,9 11,8 14,9 14,6 15,3 5 3 7 4 N 1020,5 49 0,0
23.09.2017 18:00:00 18,1 11,9 18,4 14,5 15,3 5 3 14 7 N 1020,2 44 0,0
23.09.2017 17:00:00 18,9 11,7 20,3 14,5 15,3 9 5 14 7 NNE 1020,3 47 0,0
23.09.2017 16:00:00 19,2 11,2 23,5 14,4 15,3 7 4 21 12 N 1020,7 46 0,0
23.09.2017 15:00:00 19,2 11,2 19,7 14,4 15,3 4 2 18 10 NE 1021,1 39 0,0
23.09.2017 14:00:00 18,5 11,8 21,0 14,4 15,3 9 5 16 9 N 1021,3 43 0,0
23.09.2017 13:00:00 18,1 12,8 24,7 14,4 15,3 5 3 14 8 NNW 1021,8 18 0,0
23.09.2017 12:00:00 15,9 12,6 23,2 14,5 15,3 4 2 9 5 N 1022,4 17 0,0
23.09.2017 11:00:00 12,7 12,1 14,2 14,5 15,4 3 2 10 5 NNW 1023,4 8 0,0
23.09.2017 10:00:00 10,6 10,4 11,6 14,5 15,3 8 4 10 6 N 1023,7 1,7 0,0
23.09.2017 09:00:00 9,9 9,7 8,6 14,6 15,4 2 1 11 6 N 1023,6 0,1 0,0
23.09.2017 08:00:00 9,7 9,4 2,4 14,5 15,4 5 3 9 5 NW 1023,7 3,9 0,0
23.09.2017 07:00:00 8,9 8,3 2,6 14,6 15,4 0 0 4 2 N 1023,6 9 0,0
23.09.2017 06:00:00 10,3 9,7 4,1 14,6 15,4 0 0 5 3 N 1023,4 14 0,0
23.09.2017 05:00:00 10,4 9,5 4,7 14,6 15,4 4 2 8 4 W 1023,5 19 0,0
23.09.2017 04:00:00 11,6 10,0 7,0 14,6 15,4 3 1 4 2 WSW 1023,4 30 0,0
23.09.2017 03:00:00 12,1 10,2 8,8 14,5 15,4 0 0 5 3 N 1023,4 33 0,0
23.09.2017 02:00:00 12,6 10,5 9,6 14,5 15,4 2 1 8 5 W 1023,5 35 0,0
23.09.2017 01:00:00 12,9 10,4 8,5 14,5 15,4 5 3 11 6 NNW 1023,2 40 0,0
23.09.2017 00:00:00 13,5 10,3 9,1 14,5 15,4 8 4 12 7 NNW 1023,3 44 0,0
22.09.2017 23:00:00 14,4 10,4 11,8 14,4 15,4 7 4 16 9 NNW 1023,4 13 0,0
22.09.2017 22:00:00 15,0 10,4 10,5 14,4 15,4 11 6 18 10 NNW 1022,7 13 0,0
22.09.2017 21:00:00 14,7 10,3 9,0 14,3 15,4 5 3 10 5 NNW 1022,3 10 0,0
22.09.2017 20:00:00 14,8 9,6 9,9 14,2 15,4 5 3 11 6 WNW 1021,8 60 0,0
22.09.2017 19:00:00 17,2 9,6 15,1 14,2 15,4 9 5 19 10 WNW 1021,0 58 0,0
22.09.2017 18:00:00 19,9 10,0 21,1 14,1 15,4 11 6 23 13 WNW 1020,2 56 0,0
22.09.2017 17:00:00 20,6 9,8 25,0 14,0 15,4 12 7 21 11 W 1020,1 60 0,0
22.09.2017 16:00:00 20,7 10,5 25,9 13,9 15,4 12 6 23 12 W 1019,9 49 0,0
22.09.2017 15:00:00 20,5 9,4 27,9 13,9 15,4 12 6 23 12 WSW 1019,9 20 0,0
22.09.2017 14:00:00 20,0 8,6 26,3 13,9 15,5 13 7 21 12 WNW 1020,0 39 0,0
22.09.2017 13:00:00 19,5 9,9 26,5 14,0 15,4 7 4 16 9 SW 1020,2 55 0,0
22.09.2017 12:00:00 18,1 10,7 23,4 14,0 15,4 6 3 14 8 SW 1020,3 19 0,0
22.09.2017 11:00:00 16,0 9,9 18,8 14,0 15,4 8 4 16 9 SSW 1020,5 41 0,0
22.09.2017 10:00:00 14,2 10,2 10,6 14,0 15,4 0 0 4 2 N 1020,6 19 0,0
22.09.2017 09:00:00 12,4 8,9 4,3 14,1 15,5 3 2 6 3 SSE 1020,5 11 0,0
22.09.2017 08:00:00 8,7 7,8 1,8 14,1 15,5 5 3 8 4 S 1020,8 3,9 0,0
22.09.2017 07:00:00 7,5 6,4 1,9 14,2 15,5 3 2 8 5 S 1020,6 4,1 0,0
22.09.2017 06:00:00 8,4 7,3 3,8 14,2 15,5 3 2 5 3 SW 1020,3 16 0,0
22.09.2017 05:00:00 9,2 7,3 4,0 14,2 15,5 2 1 10 5 SSW 1020,3 16 0,2
22.09.2017 04:00:00 10,4 8,2 6,4 14,2 15,5 11 6 13 7 SE 1020,0 19 0,0
22.09.2017 03:00:00 9,8 8,4 4,7 14,2 15,5 5 3 9 5 SSE 1020,3 18 0,0
22.09.2017 02:00:00 9,6 7,9 4,8 14,2 15,5 4 2 6 3 S 1020,6 19 0,0
22.09.2017 01:00:00 9,6 7,9 4,0 14,2 15,5 3 2 7 4 SSE 1020,4 20 0,0
22.09.2017 00:00:00 11,3 8,3 5,0 14,2 15,5 3 2 6 4 S 1020,0 28 0,0
21.09.2017 23:00:00 11,9 8,4 5,3 14,2 15,5 6 3 11 6 ESE 1019,8 34 0,0
21.09.2017 22:00:00 12,3 8,6 5,4 14,1 15,5 8 4 13 7 E 1019,8 44 0,0
21.09.2017 21:00:00 12,9 9,0 6,3 14,1 15,5 9 5 12 7 E 1019,5 53 0,0
21.09.2017 20:00:00 13,9 9,1 7,3 14,0 15,5 7 4 9 5 ENE 1019,0 60 0,0
21.09.2017 19:00:00 17,1 8,5 15,2 14,0 15,5 4 2 9 5 NE 1018,5 60 0,0
21.09.2017 18:00:00 17,9 8,5 20,1 13,9 15,5 6 3 14 8 ENE 1018,2 60 0,0
21.09.2017 17:00:00 17,9 7,6 23,0 13,9 15,6 10 5 16 8 ENE 1018,2 19 0,0
21.09.2017 16:00:00 18,3 8,3 24,5 13,9 15,5 9 5 15 8 E 1018,5 54 0,0
21.09.2017 15:00:00 17,8 7,5 25,1 13,9 15,5 4 2 18 10 NE 1018,9 19 0,0
21.09.2017 14:00:00 16,9 5,8 24,8 13,9 15,6 6 3 15 8 ENE 1019,4 58 0,0
21.09.2017 13:00:00 16,0 7,2 22,7 13,9 15,5 6 4 15 8 ENE 1020,1 19 0,0
21.09.2017 12:00:00 14,4 8,3 21,4 14,0 15,6 9 5 18 10 E 1020,7 18 0,0
21.09.2017 11:00:00 13,0 9,3 17,1 14,0 15,6 11 6 16 9 E 1021,1 16 0,0
21.09.2017 10:00:00 11,6 8,8 7,6 14,1 15,6 5 3 9 5 ENE 1021,5 11 0,0
21.09.2017 09:00:00 8,3 6,8 4,7 14,2 15,6 3 2 8 4 E 1021,8 11 0,0
21.09.2017 08:00:00 5,9 5,6 1,8 14,2 15,6 5 3 9 5 ESE 1022,1 10 0,0
21.09.2017 07:00:00 5,7 5,6 2,2 14,3 15,6 7 4 10 5 ESE 1022,1 7 0,0
21.09.2017 06:00:00 5,5 5,1 0,2 14,3 15,6 7 4 11 6 SSE 1022,4 7 0,0
21.09.2017 05:00:00 5,7 5,1 0,1 14,4 15,6 0 0 2 1 N 1022,3 16 0,0
21.09.2017 04:00:00 6,8 6,5 0,2 14,4 15,6 0 0 5 3 N 1022,4 17 0,0
21.09.2017 03:00:00 7,7 6,6 0,9 14,4 15,6 5 3 9 5 S 1022,6 49 0,0
21.09.2017 02:00:00 6,1 4,7 1,0 14,4 15,6 6 4 9 5 SSE 1023,0 44 0,0
21.09.2017 01:00:00 7,6 6,2 1,3 14,4 15,6 7 4 8 5 SSE 1022,8 57 0,0
21.09.2017 00:00:00 7,6 6,1 1,7 14,4 15,6 0 0 3 2 N 1022,9 60 0,0
20.09.2017 23:00:00 8,2 6,7 1,6 14,4 15,7 0 0 3 2 N 1022,9 59 0,0
20.09.2017 22:00:00 9,2 7,3 2,8 14,4 15,7 0 0 5 3 N 1022,7 60 0,0
20.09.2017 21:00:00 10,2 8,0 3,6 14,3 15,7 0 0 4 2 N 1022,7 60 0,0
20.09.2017 20:00:00 12,3 7,2 6,7 14,3 15,7 3 2 10 5 SW 1022,2 60 0,0
20.09.2017 19:00:00 14,7 7,5 14,1 14,3 15,7 5 3 15 8 W 1021,7 60 0,0
20.09.2017 18:00:00 14,1 8,5 13,9 14,2 15,6 6 3 16 9 WNW 1021,8 60 0,0
20.09.2017 17:00:00 15,1 8,1 15,3 14,2 15,6 14 7 20 11 SW 1021,9 55 0,0
20.09.2017 16:00:00 14,7 7,7 17,1 14,2 15,7 4 2 10 6 WSW 1022,1 59 0,0
20.09.2017 15:00:00 15,7 9,4 17,3 14,2 15,7 5 3 16 9 E 1022,3 58 0,0
20.09.2017 14:00:00 14,0 7,7 15,6 14,2 15,7 8 4 21 12 SSW 1023,1 48 0,0
20.09.2017 13:00:00 13,5 9,2 14,2 14,2 15,7 9 5 19 10 WSW 1023,5 45 0,0
20.09.2017 12:00:00 11,5 9,1 11,3 14,2 15,7 12 7 21 11 WSW 1024,0 20 0,0
20.09.2017 11:00:00 9,8 9,5 10,9 14,3 15,7 9 5 13 7 WNW 1024,3 11 0,0
20.09.2017 10:00:00 9,6 9,6 10,1 14,3 15,7 8 4 14 8 W 1024,1 8 0,0
20.09.2017 09:00:00 9,5 9,5 9,1 14,3 15,7 6 3 15 8 WSW 1023,6 1,8 0,0
20.09.2017 08:00:00 8,9 8,9 8,9 14,3 15,7 10 6 16 9 W 1023,6 0,6 0,0
20.09.2017 07:00:00 9,0 9,0 8,9 14,4 15,7 9 5 17 9 SW 1023,1 0,4 0,0
20.09.2017 06:00:00 9,0 9,0 8,7 14,4 15,7 10 5 15 8 SW 1023,2 0,2 0,0
20.09.2017 05:00:00 8,9 8,9 8,0 14,4 15,7 9 5 13 7 SW 1023,2 0,4 0,0
20.09.2017 04:00:00 8,6 8,5 5,4 14,4 15,7 6 3 11 6 SW 1023,1 4,7 0,0
20.09.2017 03:00:00 7,7 7,4 4,9 14,4 15,7 8 4 10 5 SW 1023,2 6 0,2
20.09.2017 02:00:00 8,2 7,9 4,8 14,4 15,7 5 3 10 5 SSW 1023,1 9 0,0
20.09.2017 01:00:00 8,3 7,9 6,1 14,5 15,8 9 5 11 6 SW 1023,1 12 0,0
20.09.2017 00:00:00 9,4 8,6 7,7 14,4 15,8 6 4 13 7 SSW 1023,0 19 0,0
19.09.2017 23:00:00 9,5 8,7 8,0 14,4 15,8 5 3 11 6 WSW 1023,1 29 0,0
19.09.2017 22:00:00 9,8 9,0 6,6 14,4 15,8 7 4 14 7 W 1022,7 48 0,0
19.09.2017 21:00:00 9,0 7,6 6,1 14,4 15,8 6 3 15 8 WSW 1022,5 60 0,0
19.09.2017 20:00:00 11,3 8,2 10,5 14,3 15,8 11 6 18 10 W 1021,4 60 0,0
19.09.2017 19:00:00 12,6 8,3 12,2 14,3 15,8 12 6 27 15 WNW 1020,6 60 0,0
19.09.2017 18:00:00 14,3 7,8 13,8 14,2 15,8 14 8 29 16 NNW 1019,8 60 0,0
19.09.2017 17:00:00 14,6 6,9 16,8 14,2 15,8 18 10 31 17 WNW 1019,2 57 0,0
19.09.2017 16:00:00 14,4 8,3 14,7 14,2 15,8 13 7 34 18 W 1019,3 49 0,0
19.09.2017 15:00:00 15,2 9,1 14,5 14,2 15,8 17 9 33 18 NW 1019,1 20 0,0
19.09.2017 14:00:00 12,2 10,3 11,3 14,2 15,8 11 6 28 15 WNW 1019,5 50 0,0
19.09.2017 13:00:00 12,3 9,3 14,2 14,2 15,8 10 5 18 10 WNW 1019,5 18 0,0
19.09.2017 12:00:00 11,7 9,9 11,7 14,2 15,9 11 6 18 10 WNW 1019,5 41 0,0
19.09.2017 11:00:00 10,7 9,5 11,3 14,3 15,9 8 4 13 7 W 1019,5 39 0,0
19.09.2017 10:00:00 10,0 9,2 10,1 14,3 15,8 6 3 13 7 W 1019,4 15 0,0
19.09.2017 09:00:00 9,5 9,0 9,2 14,3 15,9 7 4 14 8 W 1018,9 9 0,0
19.09.2017 08:00:00 9,2 8,9 8,7 14,3 15,9 6 3 8 5 SW 1018,9 6 0,0
19.09.2017 07:00:00 8,9 8,6 8,5 14,3 15,9 4 2 10 5 W 1018,5 6 0,0
19.09.2017 06:00:00 8,8 8,5 8,5 14,4 15,9 5 3 16 9 W 1018,3 7 0,0
19.09.2017 05:00:00 8,7 8,4 8,1 14,4 15,9 9 5 16 9 WSW 1018,5 7 0,0
19.09.2017 04:00:00 8,7 8,2 7,7 14,4 15,9 9 5 16 9 WSW 1018,6 13 0,0
19.09.2017 03:00:00 8,2 7,8 7,0 14,4 15,9 7 4 13 7 SW 1018,8 13 0,4
19.09.2017 02:00:00 7,9 7,3 5,1 14,4 15,9 9 5 14 8 SW 1019,2 17 0,0
19.09.2017 01:00:00 7,5 6,6 5,5 14,4 15,9 12 6 19 10 SW 1019,0 58 0,0
19.09.2017 00:00:00 8,1 7,2 6,5 14,4 16,0 13 7 18 10 SSW 1019,0 43 0,0
18.09.2017 23:00:00 9,2 8,0 7,0 14,4 15,9 9 5 13 7 SSW 1018,9 58 0,0
18.09.2017 22:00:00 9,6 8,0 7,8 14,3 15,9 2 1 9 5 SSW 1018,6 57 0,0
18.09.2017 21:00:00 10,3 7,9 8,2 14,3 16,0 5 3 12 6 SW 1018,5 58 0,0
18.09.2017 20:00:00 11,3 8,7 9,8 14,3 16,0 7 4 14 8 WSW 1017,8 60 0,0
18.09.2017 19:00:00 11,7 8,9 11,2 14,3 16,0 11 6 22 12 WSW 1017,4 60 0,0
18.09.2017 18:00:00 13,2 9,8 11,1 14,2 16,0 8 4 14 7 WSW 1016,9 57 0,0
18.09.2017 17:00:00 11,4 8,6 10,7 14,2 16,0 3 2 20 11 WSW 1017,4 10 1,6
18.09.2017 16:00:00 13,0 8,5 13,2 14,2 16,0 11 6 27 14 SSW 1017,0 60 0,0
18.09.2017 15:00:00 13,2 8,7 15,9 14,2 16,0 11 6 24 13 SW 1017,1 59 0,0
18.09.2017 14:00:00 13,1 8,4 16,9 14,2 16,0 9 5 21 11 WSW 1017,4 60 0,0
18.09.2017 13:00:00 12,6 8,5 13,9 14,2 16,0 13 7 22 12 SW 1017,6 58 0,0
18.09.2017 12:00:00 11,7 8,4 13,3 14,2 16,0 14 8 23 12 SW 1017,7 60 0,0
18.09.2017 11:00:00 10,8 8,6 11,5 14,2 16,0 14 7 21 11 SW 1017,8 60 0,0
18.09.2017 10:00:00 9,8 8,7 10,4 14,3 16,0 13 7 19 10 WSW 1017,7 60 0,0
18.09.2017 09:00:00 9,2 8,4 8,8 14,3 16,1 11 6 19 10 SW 1017,6 60 0,0
18.09.2017 08:00:00 8,7 8,2 8,2 14,3 16,1 10 6 18 10 SSW 1017,2 60 0,0
18.09.2017 07:00:00 8,6 8,2 8,2 14,3 16,1 13 7 20 11 SSW 1016,9 60 0,0
18.09.2017 06:00:00 8,6 8,2 8,1 14,4 16,1 6 3 17 9 S 1016,6 60 0,0
18.09.2017 05:00:00 8,6 8,2 8,1 14,3 16,1 8 5 16 9 SW 1016,6 58 0,0
18.09.2017 04:00:00 8,7 8,2 7,9 14,4 16,1 16 9 21 11 SW 1016,3 60 0,0
18.09.2017 03:00:00 8,7 8,2 8,3 14,4 16,1 11 6 17 9 SW 1016,4 60 0,0
18.09.2017 02:00:00 8,7 8,2 8,3 14,4 16,1 10 5 21 11 SW 1016,4 60 0,0
18.09.2017 01:00:00 8,7 8,2 8,4 14,4 16,1 14 8 19 10 SSW 1016,2 60 0,0
18.09.2017 00:00:00 8,9 8,3 8,4 14,3 16,1 10 6 15 8 SSW 1016,1 60 0,0
17.09.2017 23:00:00 9,2 8,4 7,1 14,3 16,1 8 4 12 6 SSW 1015,7 60 0,0
17.09.2017 22:00:00 9,5 8,4 7,7 14,3 16,1 5 3 7 4 SSW 1015,4 60 0,0
17.09.2017 21:00:00 9,7 8,8 8,8 14,3 16,1 4 2 5 3 WSW 1014,9 57 0,2

tt = Température de l'air
td = dewpoint
tt 5cm = Température de l'air 5cm
tt -20cm = Température de l'air -20cm
tt -100cm = Température de l'air -100cm
ff = Vitesse du vent
fx = gusts
dd = Direction du vent
ppp = reduced air pressure
vv = visibility
rr = Quantités de précipitations

stations d'obs. à proximité